GEFSMA_500_meanwind_222.txt.gz
Wind_Speed
28 28 28 29 28 28 28 28 28 29 29 30 31 31 32 32 33 34 34 34 34 35 36 35 35 36 36 35 35 34 34 34 35 36 36 37 37 37 37 37 37 37 37
29 29 29 29 29 29 29 29 30 31 31 32 32 32 32 33 34 34 34 35 35 35 35 35 35 35 36 35 35 35 35 36 36 37 37 37 37 38 37 38 38 38 37
29 29 30 30 30 30 30 30 31 32 32 32 32 32 33 34 34 34 35 35 35 35 35 35 35 36 36 36 36 37 37 37 38 38 37 37 37 37 37 37 38 39 39
29 29 30 29 29 29 30 30 31 32 32 32 32 33 33 34 34 34 35 35 34 34 34 35 36 36 37 37 37 37 37 38 38 38 37 36 37 37 37 37 38 38 38
29 29 29 29 29 29 30 31 32 32 33 33 32 32 32 33 33 34 34 34 33 33 34 34 35 35 36 36 37 37 37 37 37 37 36 36 37 37 38 38 38 38 38
30 30 30 30 30 31 31 32 32 33 33 33 32 32 32 32 33 33 33 33 33 34 34 34 34 35 35 35 36 36 37 37 37 36 36 36 37 38 38 39 39 39 38
31 31 32 33 32 32 32 32 32 32 33 32 32 32 32 32 33 33 33 33 34 34 34 34 34 35 34 34 35 35 35 35 36 36 36 36 36 37 37 37 38 38 38
32 33 33 33 33 33 33 33 32 32 32 32 32 31 31 31 32 32 33 34 34 34 35 35 35 36 35 34 34 34 34 34 34 34 34 34 35 35 36 36 36 36 37
33 33 32 33 33 33 33 33 32 32 32 32 32 32 32 32 32 33 33 34 34 34 35 36 35 35 35 34 33 33 32 32 32 32 33 33 34 35 35 36 37 38 37
34 34 33 33 33 33 33 33 32 33 33 32 31 32 32 33 33 33 33 34 35 35 35 35 35 34 34 34 33 32 31 32 32 32 32 33 33 34 35 36 36 36 36
35 34 34 34 33 33 33 33 33 33 33 33 33 33 34 34 34 34 33 33 34 34 34 34 34 33 33 33 32 32 32 32 31 32 32 33 33 34 35 35 35 35 36
35 34 34 34 34 33 34 33 34 34 34 34 35 35 35 35 34 34 33 32 33 33 33 33 32 32 32 32 32 32 32 31 31 31 32 32 33 34 34 34 35 35 35
35 34 33 33 33 33 34 34 34 34 34 34 34 34 34 34 35 34 34 33 33 32 32 32 33 32 32 32 32 32 31 30 31 32 31 31 32 33 33 34 34 35 36
35 34 34 33 33 33 34 34 34 33 33 33 33 33 34 35 34 34 33 33 32 32 32 32 32 32 32 32 32 31 31 30 31 32 31 31 31 32 32 33 34 34 35
36 35 34 34 34 33 33 33 33 32 32 33 33 33 34 33 33 33 33 33 33 32 31 31 31 31 31 31 31 31 31 31 32 32 31 31 32 32 32 33 33 33 33
36 36 35 34 34 34 33 33 33 33 33 32 33 33 33 32 32 33 33 33 33 33 31 30 30 30 31 31 30 30 31 31 32 32 31 31 31 32 31 31 31 32 31
37 36 35 34 34 34 33 33 33 32 33 33 33 33 32 32 32 32 33 32 32 32 31 30 30 30 31 31 31 31 31 31 30 30 29 29 30 30 30 31 31 30 29
37 36 36 35 34 34 33 33 33 32 32 33 33 32 32 32 32 32 32 31 31 31 31 30 30 30 31 31 30 30 30 30 29 28 27 28 29 30 30 30 29 29 28
37 36 36 35 34 33 33 32 32 32 32 32 32 31 31 31 31 31 30 30 30 30 30 30 30 30 30 29 29 29 28 28 28 28 28 29 29 29 29 29 29 28 27
36 36 35 35 34 33 33 32 32 31 31 31 31 31 31 30 30 30 30 29 29 30 30 30 29 29 28 28 27 27 27 27 27 27 28 28 28 28 28 28 27 26 26
37 36 35 34 34 34 33 32 32 31 31 31 31 31 30 31 31 30 29 29 29 29 29 29 28 28 27 27 26 26 26 26 26 26 27 27 27 27 28 27 27 26 27
36 36 35 34 34 34 33 32 32 32 31 31 30 30 30 30 30 30 29 29 29 29 29 28 27 27 27 27 26 25 26 26 26 26 26 26 27 27 26 26 27 27 27
36 36 35 34 34 34 34 33 32 32 31 30 30 30 29 29 29 29 30 30 30 29 29 28 27 27 27 26 25 25 25 26 27 26 26 26 26 26 26 26 26 26 27
35 35 35 35 34 34 34 34 33 32 31 30 30 30 29 29 29 30 30 30 29 28 28 28 27 27 27 26 25 25 25 26 26 25 25 26 26 26 25 26 26 26 27
35 36 36 36 35 34 34 34 33 32 31 31 30 30 29 29 29 29 29 29 29 29 28 28 27 26 26 25 25 24 24 25 25 25 25 26 26 25 25 25 25 27 28
36 36 36 36 36 35 34 34 33 32 31 31 31 30 30 29 29 29 29 29 29 29 28 27 27 27 26 25 25 24 24 24 24 24 25 25 25 25 25 25 26 27 28

GEFSMA_500_meanwind_228.txt.gz
Wind_Speed
27 27 27 27 27 27 27 27 27 27 27 28 28 29 29 30 31 30 31 32 32 33 33 34 34 33 33 33 32 32 32 33 33 33 34 33 33 33 32 32 32 33 33
28 28 28 28 28 28 28 28 28 28 28 29 29 29 30 31 31 31 31 32 32 33 33 33 33 32 32 32 32 32 32 32 33 32 32 33 33 33 32 33 33 32 33
29 29 28 28 29 29 29 29 29 29 29 30 31 31 31 32 32 32 32 32 32 33 33 33 33 32 32 32 33 33 33 32 33 32 32 32 32 32 32 33 32 32 32
30 30 30 29 29 30 30 29 30 30 30 30 31 31 32 32 32 33 32 32 32 32 33 32 32 32 32 32 33 33 33 32 32 32 32 31 31 31 32 32 33 33 33
31 31 31 30 30 30 30 30 30 29 30 31 32 32 32 32 33 33 33 32 32 32 33 32 32 32 32 32 32 33 32 32 32 32 32 31 31 31 31 32 32 33 33
32 32 31 31 31 31 31 31 30 30 30 31 32 32 32 33 33 33 32 32 32 32 32 33 33 32 32 32 32 32 32 32 32 32 32 31 30 30 31 31 32 33 33
32 31 31 31 31 31 30 30 31 31 32 32 32 33 33 33 33 32 32 32 32 33 33 33 33 33 33 33 33 33 33 33 33 32 32 31 30 30 31 31 31 32 33
32 32 32 31 31 31 30 31 32 32 32 32 32 32 32 32 32 32 32 32 33 33 33 33 33 33 33 34 34 34 33 33 33 32 32 31 30 30 30 30 31 32 33
33 33 33 32 32 32 32 32 32 32 32 32 32 32 32 31 31 32 32 33 33 33 33 33 33 33 34 34 34 34 33 33 32 32 31 32 32 31 31 31 31 32 32
34 34 33 33 33 33 33 33 33 33 33 32 32 32 32 31 31 31 31 32 32 33 33 33 33 34 34 34 34 33 33 33 33 32 32 32 32 32 32 32 32 32 32
36 36 35 34 34 34 33 34 33 33 33 33 33 32 32 32 32 32 31 32 33 34 34 34 34 34 34 33 32 32 32 32 32 32 31 31 31 31 32 32 32 33 33
37 36 36 35 35 35 35 34 34 34 34 34 34 33 33 33 33 33 32 32 32 33 33 34 33 33 33 32 31 31 31 31 31 31 31 31 31 31 31 32 32 33 33
38 37 37 36 36 35 35 35 34 34 34 33 33 33 33 33 33 33 32 32 32 32 32 33 33 32 31 31 31 31 31 31 31 31 31 31 31 30 31 31 32 32 32
39 39 38 37 36 36 35 34 34 34 33 32 32 32 33 33 33 33 33 32 31 32 32 32 32 32 31 31 31 31 31 31 31 30 30 30 30 30 30 30 30 31 32
39 39 39 38 37 36 35 34 34 33 33 32 32 32 32 32 33 33 33 32 32 31 31 31 31 32 32 32 32 31 31 31 30 30 30 30 30 29 29 30 30 31 31
40 39 39 38 37 37 36 36 35 34 34 33 32 32 32 32 32 32 32 32 32 32 31 31 31 32 32 31 31 32 31 31 30 30 30 30 30 29 29 29 30 30 30
40 40 40 39 39 38 37 36 35 35 34 33 32 32 32 32 31 31 31 31 32 32 31 31 31 32 32 32 32 32 31 31 31 31 30 29 29 29 29 29 29 29 29
40 40 40 40 39 38 37 36 35 34 34 33 33 32 32 31 31 31 31 31 31 32 31 31 31 32 32 32 31 31 30 30 30 30 29 29 29 28 28 28 28 28 29
40 40 40 40 39 39 38 37 35 34 33 33 33 32 32 31 31 31 31 31 31 31 31 31 31 31 31 30 30 29 29 28 28 28 28 28 28 28 28 27 27 28 28
40 40 39 39 38 38 38 37 36 34 33 33 32 32 32 31 31 31 32 32 32 32 31 30 30 30 30 30 29 29 28 28 27 28 28 27 27 27 28 27 28 28 29
39 40 39 38 37 37 37 37 36 34 33 32 32 31 31 31 31 32 32 32 31 31 30 29 29 29 29 29 29 29 28 27 27 27 27 26 27 27 26 27 27 27 27
39 39 39 39 38 37 37 37 36 35 34 33 32 31 30 30 31 31 32 31 30 30 29 29 29 28 28 28 29 28 27 27 26 27 27 26 27 26 25 25 25 25 25
39 39 39 38 37 37 37 37 36 35 35 34 33 32 31 30 30 30 30 30 30 29 29 29 28 27 28 28 28 28 27 26 26 26 26 26 26 25 24 24 24 24 24
39 39 38 38 38 38 37 36 36 35 35 34 33 33 32 31 30 30 30 30 29 29 29 28 28 28 28 27 27 27 27 26 26 26 26 26 25 24 24 23 23 23 23
39 39 38 38 38 38 37 36 36 35 34 34 33 32 32 31 31 30 30 30 29 29 29 28 28 28 28 27 27 27 27 26 26 26 26 25 24 24 24 24 23 23 23
38 38 38 38 37 37 37 36 35 34 34 33 32 31 31 31 30 31 30 29 29 29 29 29 28 28 27 26 27 27 27 26 26 25 24 24 24 23 23 23 23 23 23

GEFSMA_500_meanwind_234.txt.gz
Wind_Speed
27 26 25 25 25 25 26 26 26 26 26 26 27 27 27 28 28 29 30 31 32 32 32 33 33 33 33 32 32 32 32 32 32 33 32 32 32 32 32 32 32 31 31
28 28 27 27 27 27 27 27 27 27 27 27 28 28 29 29 30 30 31 32 33 33 33 33 33 33 32 32 32 33 33 33 32 32 33 32 32 32 32 32 32 31 31
29 29 29 29 29 29 29 29 28 29 29 29 29 30 30 31 31 32 32 33 33 33 33 33 33 33 32 32 33 33 33 33 33 33 33 33 33 32 32 32 31 31 31
31 31 30 30 30 30 30 30 30 30 30 30 31 31 32 32 32 32 33 33 33 33 33 33 33 32 32 33 33 33 34 34 34 34 34 33 33 32 32 31 31 31 30
32 32 32 32 32 32 31 31 32 32 31 31 32 32 32 32 33 33 33 33 33 33 33 33 33 33 33 33 33 33 34 34 34 34 34 33 33 33 32 31 31 30 30
33 32 33 33 33 33 33 32 33 33 33 33 32 32 32 32 32 33 33 33 34 34 34 33 34 34 34 34 33 34 34 34 34 34 34 33 33 33 32 31 30 31 30
34 34 34 33 33 33 33 33 33 33 33 33 32 32 33 33 33 34 34 34 35 35 34 34 34 34 34 34 34 34 34 34 34 34 34 33 33 32 31 31 30 31 31
35 35 35 36 36 36 35 35 35 34 34 34 34 33 33 33 33 34 34 35 35 35 35 35 35 34 34 34 34 34 33 33 33 34 34 33 33 33 32 31 31 31 31
36 36 36 35 36 37 36 35 35 35 35 34 34 34 34 34 33 34 34 34 34 34 35 35 34 35 35 35 34 33 33 33 33 34 34 33 33 32 32 31 32 32 32
37 36 37 36 36 36 36 35 34 35 34 34 35 35 35 34 33 32 32 33 33 34 34 34 34 34 35 34 34 34 33 33 33 33 33 33 33 32 32 32 32 32 33
38 36 36 36 36 35 35 35 34 33 33 33 33 33 32 33 33 32 31 31 32 34 34 33 34 34 34 34 34 34 34 34 33 33 33 33 32 32 32 32 32 33 33
39 38 38 37 35 34 34 35 34 34 34 33 33 33 33 32 32 32 32 32 33 34 34 34 34 35 34 34 34 34 34 34 34 33 33 32 32 33 33 33 33 33 32
39 39 39 37 35 34 33 33 33 33 34 33 33 33 33 34 34 33 33 33 34 34 34 34 35 35 35 34 34 34 34 34 33 33 33 32 32 33 33 34 33 32 31
40 39 38 38 38 36 34 34 34 34 34 33 34 34 33 33 34 35 35 35 34 34 34 35 35 35 35 34 34 34 33 33 33 33 33 32 32 33 34 34 33 32 32
40 40 39 38 38 37 37 36 36 35 35 35 34 34 33 33 34 34 35 35 35 34 34 35 35 34 34 34 34 33 33 33 33 33 33 33 33 33 34 33 33 32 31
41 40 40 38 39 37 36 35 35 35 34 34 34 34 33 33 34 34 34 35 35 35 33 33 34 33 34 34 33 33 33 33 33 33 33 33 33 34 34 33 33 31 31
41 40 40 40 39 38 37 36 35 35 35 34 34 34 34 34 34 34 34 34 34 33 32 32 33 32 33 33 33 33 33 33 32 32 33 33 33 33 32 32 31 31 30
41 41 41 41 41 40 39 37 36 35 35 35 35 34 33 33 33 33 33 33 33 32 32 31 31 32 33 33 33 33 33 33 32 32 32 32 32 32 31 30 30 30 30
41 41 41 41 41 40 39 38 37 37 37 36 36 35 34 34 33 33 33 33 32 32 31 31 31 32 32 33 32 32 32 32 32 31 31 31 30 30 30 30 29 29 29
42 41 41 40 40 40 39 38 39 39 38 38 37 36 35 34 34 34 33 32 31 31 31 31 32 32 32 32 32 31 31 31 31 31 31 30 30 29 28 28 28 28 29
41 42 41 41 41 41 40 40 39 39 38 38 36 35 34 34 33 33 32 32 32 31 31 31 31 32 32 32 31 31 31 31 31 31 30 30 30 29 28 28 28 28 28
41 41 41 41 41 41 40 40 40 39 38 37 36 35 36 34 32 33 33 33 32 32 31 31 31 32 32 31 31 31 30 30 30 30 30 29 29 28 28 28 28 28 29
41 41 41 41 41 40 40 40 39 38 38 37 37 36 35 35 33 33 33 33 32 32 31 31 31 31 31 31 31 31 31 30 29 29 28 28 28 28 28 28 28 28 28
41 41 41 41 40 40 40 40 39 38 38 37 36 36 35 34 33 32 32 32 32 32 32 32 31 31 31 31 31 31 31 30 29 28 28 28 27 27 27 28 29 28 27
40 40 40 40 39 40 40 40 39 38 38 37 37 35 34 33 33 33 33 33 32 32 32 32 31 31 31 31 31 30 29 28 27 26 27 27 26 25 26 27 28 28 27
39 39 39 40 40 40 41 41 40 39 38 37 37 36 35 35 34 34 34 33 32 32 32 32 31 31 31 30 29 28 27 27 26 26 26 26 25 25 24 26 26 25 25

GEFSMA_500_meanwind_240.txt.gz
Wind_Speed
30 29 28 27 27 26 26 25 25 25 26 25 25 26 26 26 26 26 26 27 27 27 27 28 28 29 29 30 30 30 30 31 30 30 31 31 31 31 31 31 31 32 32
31 31 29 28 28 28 28 27 27 27 27 27 27 27 27 27 27 27 28 28 28 28 28 29 29 30 30 31 31 31 31 31 32 32 32 32 32 32 32 32 32 31 31
31 31 30 30 29 29 29 29 29 29 29 29 29 29 29 29 29 29 29 29 29 29 29 30 30 31 31 32 33 32 32 32 33 33 33 33 33 32 32 32 31 31 31
32 31 32 32 31 31 31 30 30 30 30 30 30 30 30 29 29 30 30 30 30 30 31 31 31 32 32 33 34 34 34 34 34 33 33 33 33 32 32 32 31 31 30
34 33 33 33 33 33 32 31 31 31 31 31 31 30 30 30 30 30 31 31 31 32 32 32 32 33 33 34 34 34 35 35 34 35 34 34 33 33 33 32 32 31 31
36 35 34 33 34 34 34 33 33 33 32 32 32 32 32 31 31 31 32 32 33 33 33 33 33 34 34 34 35 35 36 36 36 36 35 35 34 34 33 33 32 32 32
37 36 35 34 34 34 34 34 34 34 34 33 33 33 33 32 32 32 32 33 33 33 33 33 33 34 35 36 36 36 36 36 36 36 36 35 35 34 33 33 33 33 33
37 36 36 36 34 34 35 36 35 34 34 34 34 33 33 33 33 33 33 33 34 34 33 33 33 34 35 36 36 36 36 36 36 36 36 35 34 34 34 34 34 34 33
40 39 37 37 37 36 34 35 36 35 34 34 34 34 33 33 33 33 33 34 34 34 34 33 34 34 35 36 36 36 36 35 35 35 35 35 35 35 34 34 34 34 34
41 40 38 37 37 37 36 35 35 36 35 34 34 34 34 33 33 34 34 34 34 34 34 34 34 34 35 35 35 35 35 35 35 34 34 34 34 34 34 33 34 34 34
41 40 40 39 38 38 38 37 36 36 36 35 35 34 35 34 34 35 34 34 34 35 35 35 34 34 35 34 34 34 34 34 34 33 33 33 33 33 33 33 33 33 33
41 41 41 41 40 39 39 38 36 36 36 36 35 35 35 35 35 35 34 34 34 35 35 35 34 34 35 34 34 34 34 33 33 32 32 32 32 32 32 32 32 33 34
41 41 40 40 40 39 38 37 38 37 36 36 35 35 35 34 35 35 34 34 34 35 35 35 34 34 33 33 33 33 33 34 33 32 32 31 31 31 31 32 32 33 34
40 40 40 40 40 39 38 37 38 37 36 36 35 35 35 34 34 34 35 35 35 35 35 34 33 33 33 33 33 33 33 33 32 31 31 30 30 30 31 32 32 32 33
41 40 41 40 39 39 38 38 37 37 37 35 35 35 34 34 33 33 33 33 34 34 33 33 33 33 33 33 33 32 32 32 31 30 29 29 29 30 31 31 32 32 33
41 41 41 42 40 40 38 36 37 38 37 36 36 35 34 34 34 34 34 34 34 33 33 33 34 34 33 33 33 33 32 32 32 31 30 30 30 30 31 32 32 32 33
40 41 41 41 41 40 39 38 37 38 38 38 37 36 36 35 34 34 34 34 34 34 34 34 34 34 34 33 33 33 32 33 32 32 31 31 31 31 32 32 32 32 32
41 42 42 41 40 40 40 39 38 38 38 37 37 37 37 36 35 34 34 34 34 34 34 34 34 34 34 34 33 33 33 33 32 32 32 31 31 32 32 32 32 32 31
42 42 42 42 42 41 39 39 39 38 38 37 37 38 37 36 35 34 34 34 33 34 34 34 34 34 35 35 34 34 34 34 33 32 32 31 32 32 31 31 31 31 30
41 42 42 42 41 41 41 40 40 38 38 38 37 37 36 36 35 35 35 35 34 34 34 34 34 34 34 34 33 33 33 33 32 31 31 32 32 32 31 30 30 30 29
41 42 42 42 42 42 41 41 41 40 39 39 38 37 37 36 35 36 36 35 35 35 35 34 33 32 32 32 32 32 32 31 31 31 31 31 31 31 30 30 29 29 28
41 41 41 42 41 42 41 41 41 40 40 40 39 38 37 36 37 36 36 35 35 34 34 33 33 33 32 32 32 32 31 30 30 31 30 29 29 29 29 28 28 28 27
40 40 40 41 40 40 40 41 41 41 40 40 40 39 38 38 38 37 36 36 35 35 34 34 33 33 33 31 30 30 30 30 30 29 29 28 28 28 28 27 28 27 27
39 39 40 40 40 40 41 41 40 40 40 40 40 39 38 38 38 36 36 35 35 34 34 33 33 33 31 30 29 29 29 29 28 28 28 28 27 27 26 26 26 26 25
40 40 40 40 40 41 41 41 41 40 40 40 39 39 38 37 37 37 36 35 34 34 33 32 32 32 31 30 29 28 28 27 26 26 26 26 26 26 25 24 24 24 23
39 39 39 39 40 40 40 40 41 40 40 40 39 39 39 38 37 37 35 34 34 33 33 33 32 31 31 30 29 28 27 25 24 24 25 25 24 24 23 22 23 23 23

GEFSMA_500_meanwind_246.txt.gz
Wind_Speed
34 33 32 30 30 29 29 28 28 27 27 27 27 26 26 26 26 26 27 27 27 28 28 28 29 29 30 30 30 31 32 32 32 31 31 31 31 31 31 31 31 31 31
34 33 33 33 32 31 30 30 29 29 29 28 28 28 28 28 28 28 28 28 28 29 29 30 30 30 31 31 31 32 32 32 32 32 32 32 32 32 32 32 33 33 33
35 35 33 33 32 32 31 30 30 30 30 30 29 29 29 29 29 29 30 30 30 30 30 31 31 31 32 32 32 33 33 33 33 33 33 34 33 33 33 33 34 34 34
35 35 35 34 33 32 32 31 31 31 31 31 31 31 30 30 30 30 31 31 31 31 31 31 31 31 32 33 33 33 34 34 34 34 34 34 34 34 34 34 34 34 34
35 35 34 34 34 34 33 32 32 31 31 31 31 31 31 31 31 31 31 32 32 32 32 32 32 32 33 33 33 34 34 34 34 34 34 34 34 34 34 34 34 34 34
36 36 35 36 35 35 34 34 34 33 32 32 31 32 33 32 32 32 32 32 32 33 33 32 33 33 33 33 33 34 34 34 34 35 35 35 35 35 35 35 34 34 34
38 37 36 37 36 36 35 34 33 34 33 33 33 33 33 33 32 32 33 33 33 33 33 33 33 33 33 33 34 34 34 34 35 35 35 35 35 35 35 35 34 33 33
39 38 36 36 37 37 37 36 35 34 35 35 35 34 34 33 33 34 34 33 33 33 33 33 33 33 33 33 34 34 34 34 35 35 35 35 35 35 35 36 35 34 34
40 39 38 37 37 38 37 37 37 36 35 37 37 36 35 35 34 34 34 34 34 33 33 34 33 33 33 33 34 34 33 34 34 34 34 34 35 35 36 36 35 35 35
39 39 38 38 38 39 39 39 39 38 37 37 37 37 36 36 35 34 34 34 35 35 35 35 34 34 34 34 34 34 34 35 35 35 35 35 35 36 36 36 35 34 34
41 40 40 39 39 40 40 40 41 40 40 39 39 39 38 37 36 36 35 35 35 36 36 35 34 34 34 34 34 35 35 35 35 35 36 35 35 35 35 35 34 34 34
41 41 40 40 40 40 40 40 41 41 41 40 39 39 40 38 37 36 37 36 36 37 36 36 35 34 34 34 34 34 35 35 35 35 35 35 35 34 34 34 34 33 33
39 40 40 40 40 39 40 40 42 42 40 39 39 38 39 39 38 38 38 38 38 36 36 35 35 35 35 35 35 35 35 35 35 35 35 35 34 34 34 34 33 32 32
38 40 40 41 41 41 41 40 40 40 40 40 40 40 38 38 39 39 38 38 38 37 36 35 35 36 36 36 36 36 35 35 35 35 35 35 34 33 33 34 33 32 31
38 38 40 41 42 41 41 39 39 40 41 40 40 40 40 39 39 39 39 38 38 37 35 35 36 36 37 37 36 36 35 35 35 35 35 34 33 33 33 33 33 32 32
38 38 38 40 40 40 40 39 39 39 39 39 39 38 39 39 38 38 38 37 37 37 36 35 36 37 37 36 36 36 35 35 35 35 34 34 34 33 33 33 33 33 33
38 37 36 37 37 38 38 38 39 39 39 38 38 37 37 36 36 37 37 37 36 36 35 34 34 35 35 36 35 35 35 35 35 35 34 34 33 33 33 33 32 32 31
39 38 38 37 37 38 38 38 38 38 38 38 38 37 36 36 35 35 36 36 36 35 35 34 34 34 35 35 35 35 35 35 35 34 33 33 33 33 33 32 32 31 31
40 40 40 39 38 37 36 37 37 36 36 36 36 36 36 36 35 35 36 36 36 36 36 35 35 34 35 35 35 35 35 35 34 34 33 33 33 33 33 32 32 31 31
39 39 39 39 38 37 35 35 35 35 35 35 36 36 35 35 35 36 36 36 36 36 37 37 37 36 36 36 36 35 34 33 33 33 33 33 33 33 32 31 31 31 30
37 38 38 38 37 37 35 34 34 35 36 35 35 36 36 35 35 35 36 36 36 36 36 37 37 37 37 36 35 34 33 32 32 32 32 33 33 32 31 30 30 30 30
36 37 38 38 38 37 36 35 34 34 35 37 36 36 37 36 36 36 36 37 36 36 36 37 37 36 35 34 33 32 32 32 31 32 31 31 31 31 30 29 29 29 27
36 36 38 39 39 38 38 37 36 35 36 36 36 36 35 35 36 36 36 37 37 36 37 37 35 35 34 33 32 32 32 32 31 31 30 30 30 29 28 28 27 26 25
35 35 37 38 39 38 38 38 37 36 37 37 37 37 37 36 37 36 36 36 36 37 37 36 35 34 33 32 32 32 31 31 30 30 30 29 28 27 26 26 25 24 24
35 35 35 35 37 38 38 39 38 38 38 37 37 38 38 38 37 36 37 37 36 36 35 35 34 33 33 32 32 32 31 31 30 30 29 28 27 25 24 24 23 23 23
35 36 36 36 37 38 39 39 38 38 37 36 37 37 38 39 39 37 37 36 35 35 35 34 33 32 32 32 32 31 30 30 30 28 27 27 25 24 23 22 23 23 23

GEFSMA_500_meanwind_252.txt.gz
Wind_Speed
36 36 35 34 33 33 33 31 32 31 31 30 30 30 30 29 28 28 28 28 28 28 28 28 29 29 30 30 31 31 31 32 31 31 31 32 31 32 32 32 33 33 33
37 37 37 36 35 34 34 33 33 33 32 32 31 30 30 30 29 30 30 30 30 30 30 30 30 30 31 31 32 32 33 33 32 32 32 32 32 33 33 33 33 33 33
39 39 38 38 37 35 33 33 33 34 34 33 33 32 32 31 31 31 31 31 31 31 31 31 31 31 32 32 33 33 33 33 33 33 34 33 33 33 33 33 33 33 33
39 39 39 39 38 37 35 32 32 33 33 33 33 32 32 31 31 32 32 32 32 32 32 32 33 33 33 34 34 34 34 34 34 35 34 34 33 33 33 32 32 33 33
40 39 39 39 39 38 37 36 34 33 33 34 34 34 33 32 32 33 33 33 33 33 33 33 34 34 34 35 34 34 34 35 35 34 34 34 33 33 33 33 33 33 33
40 40 40 39 38 38 37 38 36 35 35 35 35 35 34 33 34 34 34 33 33 34 34 34 34 34 34 34 34 34 35 35 34 34 34 34 34 34 34 34 33 33 34
39 39 40 39 39 39 38 38 37 36 36 36 36 36 35 34 34 35 36 35 35 35 34 34 34 34 34 34 34 35 35 35 35 35 35 35 35 34 35 35 34 34 34
38 39 40 40 40 39 39 39 39 38 37 36 37 37 37 36 36 35 36 37 36 35 35 34 34 34 33 34 35 35 36 36 35 35 35 35 35 35 35 35 35 35 36
38 38 39 39 39 39 40 40 40 39 38 38 38 38 39 39 37 35 36 37 36 36 35 35 35 34 34 34 35 35 36 36 36 36 36 36 35 36 36 36 36 37 37
38 39 39 39 39 40 40 40 41 40 39 38 38 39 39 39 39 37 37 37 36 35 35 35 35 35 35 35 35 35 35 36 37 37 37 37 37 37 36 37 37 37 37
37 39 39 39 40 41 40 40 41 41 40 39 38 38 39 38 38 38 37 36 35 35 35 35 35 35 35 35 35 35 36 37 37 38 38 38 38 37 37 37 37 37 37
37 38 40 38 38 40 40 40 40 40 40 40 39 38 38 39 38 38 38 37 36 36 36 35 34 34 35 35 35 35 36 37 37 38 38 39 38 37 36 36 36 36 36
37 38 38 39 39 39 39 40 40 40 41 40 39 39 38 38 38 38 38 37 37 37 36 35 35 36 36 36 36 36 37 37 37 37 38 38 38 37 36 35 36 36 35
36 37 39 40 41 41 40 40 41 41 42 41 41 40 39 39 39 39 38 38 38 38 37 36 35 36 36 36 37 37 38 38 37 37 37 37 37 37 36 36 35 35 35
36 37 39 40 41 40 40 40 40 41 42 42 41 40 40 39 39 39 39 39 38 37 36 36 35 35 36 36 36 37 38 38 37 37 36 35 35 36 35 35 35 35 35
36 36 37 38 40 41 40 41 41 41 40 40 39 40 40 40 40 39 39 39 38 38 38 37 36 36 36 36 36 36 36 37 36 36 36 35 35 35 35 35 35 35 35
34 35 36 36 37 39 40 40 40 40 40 39 38 38 38 39 39 39 38 38 38 38 38 37 37 37 36 35 35 35 36 36 35 36 35 35 35 34 35 34 34 33 33
32 32 33 34 36 37 38 39 38 38 38 38 37 37 38 38 39 38 38 37 37 37 37 36 37 37 36 35 35 35 35 35 35 35 35 35 34 33 34 33 32 32 32
32 32 33 33 35 36 37 38 38 37 37 37 37 36 37 37 37 36 36 37 37 37 37 36 36 36 36 35 35 35 35 34 34 35 35 34 33 33 33 33 33 32 31
31 32 32 33 34 35 36 37 37 37 36 36 37 37 37 36 36 36 36 37 37 38 37 36 35 34 36 36 36 35 34 34 34 34 34 34 33 33 33 33 32 32 31
31 31 32 33 34 34 34 36 36 35 36 35 36 37 37 36 36 36 36 35 36 36 36 36 35 35 34 35 35 35 34 34 34 33 33 33 33 32 32 32 32 31 30
29 30 31 32 32 32 32 33 34 34 35 34 34 34 35 35 35 34 34 34 35 35 35 36 36 36 35 35 35 35 35 35 34 34 33 33 33 32 31 31 31 31 30
28 28 29 30 30 31 31 32 32 33 33 33 33 33 33 33 33 33 33 34 34 34 34 35 35 35 35 35 35 35 35 34 33 33 33 33 33 32 32 31 31 30 28
28 29 29 29 29 29 29 30 31 31 31 33 34 34 34 35 35 34 35 34 34 34 34 35 35 34 34 34 34 34 33 32 32 32 32 31 31 31 31 30 29 28 27
27 28 29 29 29 29 29 30 30 31 32 33 34 35 35 35 35 34 34 35 35 35 35 34 35 34 34 34 34 33 32 31 31 31 31 30 30 30 30 29 28 27 26
27 27 28 29 30 30 30 30 31 32 33 33 34 35 36 35 35 34 34 35 36 36 35 33 33 33 34 34 34 33 32 31 31 31 30 30 30 29 28 27 26 25 24

GEFSMA_500_meanwind_258.txt.gz
Wind_Speed
37 36 36 35 35 34 34 34 34 34 33 33 32 33 33 32 32 32 32 32 32 32 31 31 30 30 31 32 32 32 32 32 32 32 32 33 33 32 32 32 33 33 33
37 38 37 36 36 36 36 35 35 35 34 34 34 33 34 34 33 33 33 33 33 33 33 32 31 32 32 33 33 33 33 33 33 33 33 33 33 33 33 33 34 34 34
37 37 37 37 37 37 36 36 36 35 35 35 35 34 34 34 34 33 33 33 33 33 33 32 32 32 33 34 34 35 35 34 34 34 34 33 33 33 34 35 35 35 34
37 37 37 36 37 37 37 37 37 37 36 36 35 35 34 34 35 34 34 34 33 33 33 33 33 33 34 34 34 35 35 35 35 34 35 34 34 35 35 36 36 35 35
38 38 37 37 37 38 38 38 37 37 37 38 38 36 36 35 35 35 34 34 34 33 33 34 34 33 34 34 35 35 35 35 34 35 35 35 35 36 36 36 36 35 35
38 38 37 36 37 38 38 38 38 37 37 37 38 37 37 36 36 36 35 35 34 33 33 34 34 34 33 34 35 34 34 34 35 34 34 34 35 36 36 36 36 36 36
38 37 37 36 36 37 38 39 39 38 38 38 38 38 38 37 37 37 36 35 35 34 33 34 34 34 34 34 34 34 34 35 35 35 35 35 36 37 37 37 37 37 37
37 36 36 36 36 36 38 39 39 39 40 39 38 39 39 38 36 36 35 36 36 36 34 34 33 34 34 35 35 35 35 35 35 36 35 36 36 37 37 37 37 38 38
37 36 35 35 35 35 36 39 39 40 39 39 38 38 39 38 37 36 36 35 36 37 36 35 36 36 36 35 36 36 36 36 35 35 36 36 37 37 37 38 38 38 38
37 37 37 37 36 36 37 38 38 40 40 40 40 39 38 38 38 37 37 36 36 37 37 37 36 37 36 36 36 36 37 36 36 36 37 37 37 38 38 39 38 38 39
39 38 38 36 36 36 36 37 37 38 39 40 40 39 39 39 38 38 38 37 38 38 37 37 37 37 37 37 36 37 37 37 37 37 37 38 38 38 39 39 39 39 39
39 39 38 37 36 35 36 37 37 37 38 40 40 40 41 41 40 40 39 39 40 40 40 39 39 38 38 37 38 38 38 37 36 36 37 38 38 38 39 38 38 38 37
38 39 39 38 37 36 37 38 38 38 39 39 40 41 42 42 42 41 40 40 40 40 41 40 40 39 38 38 37 38 38 37 37 37 37 37 38 38 38 38 37 37 36
37 39 39 39 38 37 37 39 39 39 40 40 41 42 42 43 43 42 41 40 40 41 41 41 40 39 39 38 37 37 37 37 36 36 37 38 38 38 38 38 37 37 36
36 38 39 38 39 38 37 38 39 40 40 41 41 41 41 42 42 42 42 41 40 40 40 41 41 39 38 38 37 37 37 37 37 37 37 38 38 38 38 38 37 37 36
34 35 37 38 38 38 37 37 39 39 39 40 41 40 40 40 40 40 40 41 40 39 37 38 38 38 37 36 36 37 37 38 38 38 38 39 38 38 39 38 37 37 36
32 33 34 35 36 36 35 36 37 37 38 39 39 39 40 39 39 39 40 40 40 38 37 36 37 36 36 36 37 37 37 38 38 38 38 38 38 38 38 38 37 38 37
31 31 32 33 34 34 35 35 35 36 38 38 38 38 38 39 39 39 39 38 38 39 37 36 36 36 37 37 37 38 38 37 38 38 38 38 38 37 37 37 37 37 36
30 30 30 31 32 33 34 34 35 35 35 36 36 36 36 37 37 38 38 38 38 37 37 36 35 36 36 36 37 37 38 38 38 38 37 37 37 37 36 36 36 36 35
29 29 29 29 31 33 33 34 34 33 33 33 33 34 33 34 34 36 37 37 37 36 35 36 36 36 35 35 35 36 37 38 37 37 37 37 37 36 35 35 35 35 34
30 30 30 30 31 31 31 32 32 32 32 32 32 32 34 33 33 35 36 36 36 36 36 36 35 35 35 35 35 36 36 36 37 37 36 36 35 35 34 34 35 34 34
29 29 30 30 29 29 30 30 31 31 31 32 32 32 32 34 34 34 34 34 35 35 36 35 35 35 35 35 36 36 36 36 36 36 36 35 35 34 34 34 33 33 33
28 28 28 29 29 29 29 30 29 30 30 31 31 32 33 34 33 33 34 34 34 34 34 35 35 35 35 35 36 36 36 36 36 35 35 35 35 34 33 33 33 33 32
27 27 28 29 29 29 30 30 30 30 30 30 30 31 32 32 32 32 33 34 34 34 34 34 35 35 35 34 35 35 35 35 35 35 34 33 33 34 34 33 32 31 30
28 28 28 29 30 30 30 30 30 30 31 31 30 31 31 31 32 32 33 33 33 34 33 33 33 34 35 34 33 33 33 33 32 32 32 32 32 31 31 31 31 29 29
27 28 28 29 30 30 30 30 30 30 31 31 31 31 31 31 32 33 33 33 32 32 32 32 33 33 33 33 33 32 31 31 31 30 31 31 30 29 29 30 29 28 28

GEFSMA_500_meanwind_264.txt.gz
Wind_Speed
37 37 37 36 36 35 35 35 35 34 34 34 34 33 33 32 32 33 32 32 32 31 32 32 31 31 31 32 31 32 32 32 31 31 32 32 32 32 33 33 33 33 34
38 38 38 37 37 36 35 36 37 36 36 36 35 34 35 34 33 34 33 33 33 33 33 32 32 32 32 32 32 32 32 32 32 32 33 33 33 33 33 33 34 34 34
39 39 38 38 37 37 37 37 37 37 37 37 36 36 36 36 35 35 35 34 34 33 33 33 33 33 33 32 32 32 33 33 33 33 33 33 33 33 34 34 35 35 35
39 39 39 39 38 38 38 37 37 37 37 37 37 37 37 37 36 36 35 35 35 34 34 34 34 34 34 34 34 34 34 34 34 34 34 34 34 34 35 35 35 35 35
39 40 40 39 39 38 38 37 37 37 37 37 37 37 37 36 36 35 35 35 35 35 35 35 34 34 35 35 35 35 35 35 35 35 34 34 35 35 34 35 34 34 34
39 40 40 39 39 39 38 38 37 37 37 38 38 38 38 37 36 36 35 36 36 36 36 36 36 36 36 36 36 36 36 36 36 36 35 35 35 35 34 34 34 34 34
39 40 40 39 39 39 39 38 38 38 37 37 38 39 40 39 38 36 36 36 36 35 35 36 36 37 37 37 38 37 37 36 36 36 35 35 35 35 35 35 35 35 35
39 39 39 39 39 39 39 39 38 38 38 38 38 39 40 40 40 39 38 36 36 36 36 37 38 38 38 38 38 37 37 36 36 36 36 36 36 35 36 36 36 36 36
39 39 39 39 39 39 39 39 38 38 39 39 39 39 40 41 40 39 38 37 38 38 38 38 39 39 39 39 38 38 37 37 37 37 37 36 36 36 37 36 36 36 36
40 39 38 39 39 39 39 39 39 39 39 39 39 39 39 40 41 40 39 38 38 38 38 40 40 39 39 39 38 38 38 37 38 38 37 36 36 36 36 36 37 37 37
38 38 38 39 39 39 38 38 38 39 39 38 38 38 39 38 39 41 40 39 38 37 38 38 39 38 38 38 38 38 37 37 37 37 36 36 36 37 37 37 37 37 38
35 36 36 37 37 37 37 37 37 38 37 37 37 37 36 36 37 38 38 38 38 37 37 37 38 38 38 38 38 38 37 37 37 37 36 36 36 37 37 37 37 37 38
34 34 34 35 36 36 37 37 38 38 37 36 36 36 35 35 36 37 37 37 37 36 36 37 38 38 38 38 38 37 37 37 37 37 36 36 37 37 37 38 38 38 38
34 33 33 35 37 37 37 37 37 36 36 36 36 36 35 35 36 37 37 37 37 37 37 37 36 37 37 37 37 36 36 36 36 36 36 36 36 37 37 38 38 38 38
34 34 34 35 36 37 37 37 37 36 35 35 36 36 36 35 36 37 37 37 38 38 38 37 37 37 36 36 37 37 36 36 36 35 35 35 36 36 37 37 38 38 38
34 35 34 35 36 37 37 37 38 37 36 35 35 35 35 34 36 37 37 38 39 38 37 37 37 37 36 36 36 36 36 36 36 35 35 36 37 37 37 36 37 37 37
34 33 34 34 35 36 36 35 36 36 35 35 35 35 35 36 36 36 35 36 37 37 37 37 37 36 35 36 36 35 36 36 35 36 36 36 36 36 36 36 36 36 36
33 33 33 33 34 35 35 35 34 35 35 35 35 35 35 35 35 36 36 36 36 37 37 37 37 36 36 35 35 35 36 36 36 36 36 36 36 36 35 35 35 35 35
32 32 32 32 34 35 34 34 34 35 35 35 35 35 35 35 35 36 35 35 35 36 37 38 37 37 36 35 35 35 36 35 35 36 35 36 36 36 36 35 35 36 36
32 32 32 33 33 34 34 34 34 35 35 36 36 36 35 36 36 35 35 35 35 36 36 37 36 36 36 35 34 35 35 35 35 34 34 35 35 35 35 36 36 36 36
30 30 30 31 32 32 32 33 33 34 35 36 37 37 36 35 35 35 35 36 36 37 36 34 35 35 35 35 35 35 33 33 34 33 34 34 34 35 35 35 36 35 35
28 28 29 29 30 31 31 31 32 33 34 35 35 35 35 35 34 35 35 36 36 35 34 34 34 35 36 37 36 34 33 33 32 32 33 33 34 34 34 34 34 34 34
28 29 28 29 29 30 30 31 32 32 32 32 33 33 33 33 33 34 34 35 34 32 32 32 33 34 35 35 35 34 33 32 31 32 32 33 33 33 33 33 32 32 32
28 28 28 29 30 30 30 30 30 30 30 30 31 32 33 32 33 34 34 34 32 31 32 33 33 34 33 34 35 34 33 31 31 31 31 31 32 31 31 30 30 31 31
29 28 29 29 30 30 30 29 29 29 29 29 29 30 31 32 32 33 32 32 31 30 31 32 33 32 31 32 32 32 31 30 30 29 29 29 29 29 28 28 29 29 29
29 29 28 29 30 31 29 29 29 29 29 28 29 29 30 30 31 31 30 31 31 31 30 30 29 29 30 30 31 30 30 30 29 28 28 27 27 27 27 27 28 28 27

GEFSMA_500_meanwind_270.txt.gz
Wind_Speed
38 38 37 37 37 36 36 35 35 34 34 34 35 35 35 34 34 34 35 35 34 34 34 33 33 33 32 32 32 32 32 33 32 32 32 32 32 32 32 33 32 32 32
38 38 39 39 38 37 37 37 36 35 35 35 35 35 36 35 35 35 35 36 35 35 34 35 34 34 33 33 33 33 33 33 33 33 32 32 32 32 33 33 33 33 33
41 41 40 39 39 38 38 37 37 36 36 36 36 36 36 37 37 36 36 36 36 36 36 35 35 34 34 33 33 33 33 34 33 33 33 33 33 33 33 33 33 33 33
41 41 40 40 39 39 38 38 38 38 37 37 37 37 38 37 38 37 37 37 37 37 36 36 35 35 35 35 35 35 34 34 34 33 34 34 34 34 34 34 34 34 34
41 42 41 41 40 39 38 38 39 40 39 39 38 38 39 39 38 38 38 38 38 38 37 37 37 36 36 36 36 36 35 34 34 34 34 35 35 35 36 35 35 35 35
42 42 41 40 40 39 39 39 39 40 40 40 39 39 39 39 39 38 38 38 38 39 38 37 38 37 37 37 37 37 36 35 35 35 35 35 36 36 37 36 36 36 36
41 41 40 40 40 40 40 40 39 39 40 40 40 39 39 38 38 38 38 37 38 39 38 38 39 38 38 38 38 37 36 36 36 36 36 36 36 36 36 36 36 37 37
40 42 42 40 40 41 41 40 40 40 40 40 40 39 38 37 37 37 37 37 38 38 38 39 41 39 39 39 38 38 37 38 37 36 36 36 37 36 36 36 36 37 38
40 40 42 40 40 40 40 40 40 40 39 40 39 38 38 37 37 36 37 36 37 37 38 39 39 39 37 37 37 37 37 37 37 37 38 38 37 36 36 36 36 36 37
39 40 40 40 38 38 38 38 39 39 39 39 39 38 38 38 38 37 36 36 37 38 38 38 38 37 37 37 37 36 37 36 37 38 38 38 36 36 35 36 36 36 36
38 38 38 38 37 36 37 37 37 37 37 38 39 39 38 38 37 37 36 37 37 37 38 37 37 37 38 38 37 38 37 38 37 38 37 36 36 36 35 36 37 37 37
38 37 37 38 36 36 36 36 36 36 36 37 38 38 37 38 37 37 37 37 38 37 37 37 36 36 37 38 37 37 38 38 37 37 37 36 36 36 36 37 38 38 38
37 37 37 37 37 36 35 35 35 35 36 36 37 37 37 37 37 37 36 36 37 36 35 35 36 36 38 38 36 37 38 37 36 36 36 36 36 36 37 37 37 38 38
36 37 38 37 37 36 35 35 35 36 36 36 36 36 37 38 38 37 37 36 36 35 34 35 35 35 37 37 36 36 37 36 36 36 36 36 36 36 37 37 37 38 38
35 35 36 36 36 37 37 37 36 36 36 36 35 36 37 37 37 37 36 37 36 35 34 34 34 34 35 36 35 35 35 36 36 35 35 35 36 36 37 37 37 37 37
34 35 35 35 36 36 37 36 36 36 36 35 35 35 36 36 37 36 36 37 36 35 35 35 34 34 34 34 34 34 34 34 34 34 35 35 36 36 37 37 37 37 37
34 34 35 34 35 35 35 35 36 36 36 35 35 35 35 35 36 37 36 36 36 35 36 35 34 33 33 33 33 33 33 32 32 34 34 35 36 36 36 37 36 35 35
34 35 35 35 35 35 36 36 36 36 36 36 35 35 35 36 36 36 35 35 34 34 35 34 34 33 33 33 33 33 32 31 30 31 32 33 34 35 35 35 34 34 33
33 34 35 35 35 35 35 35 34 35 36 36 35 35 36 36 37 36 35 34 35 35 34 32 32 33 31 32 32 32 31 31 31 31 32 34 34 34 34 34 33 34 33
32 33 34 34 34 34 34 34 34 34 34 35 35 35 36 36 36 36 35 34 35 34 33 32 31 31 32 31 32 32 31 30 30 31 33 34 34 33 33 33 33 33 33
31 32 33 32 32 33 34 33 33 33 33 34 35 35 35 35 34 34 35 34 34 33 33 32 32 32 33 32 31 30 30 30 30 31 32 32 32 31 31 31 32 32 32
31 32 32 31 32 33 34 33 33 32 32 33 34 34 34 34 34 34 34 34 33 33 32 32 32 32 33 32 30 29 29 29 29 30 30 29 29 28 29 30 31 31 31
31 32 31 31 32 31 32 32 32 31 31 31 32 33 33 33 33 33 33 32 31 32 32 31 31 31 30 30 30 29 28 28 29 29 29 28 27 27 28 29 30 30 30
30 30 29 30 31 31 31 30 30 30 30 31 32 32 32 32 32 32 31 31 31 30 30 31 30 30 29 29 29 29 28 28 28 29 29 28 28 28 28 29 29 29 30
28 29 30 29 29 29 29 28 28 28 29 29 28 29 31 31 31 30 31 31 31 30 30 31 30 29 29 28 29 30 29 29 28 28 28 28 27 27 27 27 28 28 28
28 29 28 27 26 26 26 26 26 26 27 26 26 27 28 29 30 30 29 29 29 29 30 30 30 30 30 29 29 29 29 29 29 28 27 27 27 27 27 26 26 27 27

GEFSMA_500_meanwind_276.txt.gz
Wind_Speed
37 37 37 38 38 38 38 39 38 38 37 38 37 37 37 37 37 38 38 37 37 37 35 35 35 35 35 34 35 35 35 35 35 35 35 34 34 34 34 33 33 33 33
39 39 39 39 39 39 39 40 40 39 39 39 38 38 38 37 38 38 38 38 37 37 36 36 35 35 36 36 36 37 37 37 37 37 36 36 36 35 34 34 34 34 34
39 39 40 41 41 41 41 40 40 40 40 40 39 38 38 37 37 37 38 37 37 37 37 37 37 36 37 37 37 37 37 37 37 38 38 37 37 36 35 35 35 35 34
39 40 39 40 42 42 42 42 41 40 41 41 40 39 38 38 37 37 37 37 37 37 37 37 37 38 38 38 38 38 38 38 38 37 37 37 36 36 36 35 35 35 35
39 40 40 40 41 42 42 43 43 42 41 40 40 39 38 38 38 37 37 37 37 37 37 37 37 38 39 39 38 38 38 37 37 37 37 37 37 36 36 36 36 36 36
40 39 39 39 40 41 42 42 42 42 41 40 39 39 38 38 38 38 38 38 38 38 38 38 38 38 39 39 38 38 38 37 36 36 37 37 37 37 36 36 37 36 36
42 41 40 39 38 40 41 41 41 40 40 40 40 39 39 39 39 39 39 40 39 40 40 39 39 38 38 39 38 38 38 38 37 37 37 36 36 37 37 36 36 35 35
41 40 40 39 39 39 39 40 40 39 39 40 40 40 39 39 39 40 40 40 41 41 41 41 40 40 40 39 39 39 39 39 39 38 38 37 36 36 36 36 36 35 35
40 40 40 40 40 40 39 39 39 39 39 40 41 41 40 40 40 39 40 41 41 41 42 42 41 41 41 41 41 40 40 39 40 39 38 37 37 36 35 36 36 36 37
41 41 40 40 40 41 40 39 40 40 39 39 40 40 40 40 40 39 39 40 41 41 41 41 41 41 40 40 41 41 41 41 40 40 39 37 37 36 36 36 36 36 36
41 41 40 39 39 40 40 39 39 38 38 38 38 38 38 38 39 39 38 38 39 39 40 41 41 40 39 39 40 40 40 40 40 39 39 38 37 36 37 37 36 36 37
40 40 39 39 39 39 40 39 37 37 37 37 37 37 37 37 37 38 38 38 39 39 39 40 40 39 38 38 39 39 40 39 39 38 38 38 38 37 37 37 37 37 37
39 39 40 40 40 40 39 39 37 37 36 36 36 36 37 37 37 37 38 38 38 38 38 39 38 37 37 38 38 39 40 40 39 37 37 37 37 37 37 37 37 37 38
39 40 40 40 39 39 39 38 37 37 36 35 35 36 36 36 37 37 37 37 36 36 37 36 35 35 36 37 38 39 40 38 37 36 37 37 37 37 37 37 37 38 38
38 40 41 40 40 39 38 37 38 37 36 35 34 35 36 37 36 36 36 37 37 35 34 34 34 35 36 36 36 37 37 36 35 35 37 38 38 37 38 37 38 38 38
37 38 39 39 38 37 37 37 36 36 35 35 34 35 36 37 37 36 37 37 37 35 34 34 34 35 35 35 35 35 35 35 35 34 35 35 37 37 36 36 36 36 36
35 36 37 37 37 37 37 37 36 36 36 35 35 35 36 36 35 36 36 35 35 35 35 34 34 35 34 35 35 34 34 34 33 33 33 34 35 34 34 33 34 35 35
32 34 34 35 36 36 36 36 36 37 37 36 35 34 35 35 34 34 34 34 34 34 34 33 34 33 33 34 33 33 33 33 33 32 31 32 33 32 31 31 32 33 33
32 33 33 34 35 35 35 36 36 36 36 36 34 34 34 34 33 33 33 33 33 34 33 33 33 33 32 32 31 31 31 31 31 31 31 32 32 31 31 31 30 32 33
31 32 32 33 34 35 35 35 35 35 36 35 34 33 33 34 33 33 32 32 32 32 32 32 32 32 32 32 30 30 29 29 29 30 30 31 31 31 31 31 31 32 32
30 31 32 33 33 34 34 35 35 34 34 35 34 33 32 32 32 31 31 31 32 31 31 32 32 31 31 31 30 30 29 28 28 29 29 29 30 30 30 31 31 31 31
30 32 32 32 32 33 33 33 34 34 33 34 33 32 31 30 30 31 31 31 31 32 32 32 31 31 30 30 30 30 29 29 30 29 29 29 30 30 30 30 30 30 30
31 31 31 32 32 33 33 33 33 33 33 33 32 31 31 30 29 30 30 31 31 32 32 31 31 31 30 29 29 29 28 29 30 29 29 28 29 29 29 29 29 29 29
31 31 31 32 32 32 31 32 32 31 31 31 30 30 30 30 30 29 30 30 30 31 31 32 31 31 30 29 28 28 28 28 29 29 29 29 29 29 29 29 28 27 27
31 31 31 31 30 29 29 29 29 29 29 29 29 29 29 29 28 28 29 29 29 29 31 32 31 31 31 29 28 28 29 29 29 28 28 28 28 28 28 28 27 27 26
28 28 27 26 25 25 25 26 26 26 26 26 26 26 27 28 27 27 28 28 28 28 28 29 30 30 30 29 28 27 28 28 28 27 27 27 27 27 27 26 27 27 25

GEFSMA_500_meanwind_282.txt.gz
Wind_Speed
34 34 34 35 35 35 36 36 37 37 37 38 37 37 37 37 38 38 38 38 38 38 38 37 37 37 37 37 36 36 36 36 36 35 35 35 35 35 35 35 35 35 35
35 36 36 37 37 37 38 38 38 38 39 38 38 38 39 39 40 40 40 40 40 40 40 40 39 39 38 38 37 37 36 36 36 36 35 35 35 36 36 36 36 36 36
37 37 38 38 38 39 39 39 39 39 39 40 40 40 41 41 41 41 41 41 41 41 41 40 40 40 39 38 38 37 37 37 37 37 36 36 36 36 37 37 37 37 37
39 37 39 40 39 40 40 39 39 40 40 41 41 41 41 41 41 41 41 41 41 41 40 40 40 40 40 39 39 38 38 38 38 38 37 37 38 38 37 38 38 38 37
39 39 40 40 41 41 40 40 40 40 41 41 41 42 42 42 41 41 41 41 41 41 40 40 40 40 40 39 39 39 39 38 38 38 38 38 39 39 38 38 38 38 38
41 42 42 41 42 41 40 40 40 41 41 42 42 42 42 41 40 40 40 40 40 40 40 40 40 40 39 39 40 40 39 39 39 39 39 39 39 40 39 39 39 39 38
41 43 43 42 40 40 40 40 40 41 41 42 42 42 41 41 40 41 40 40 40 40 40 40 40 40 39 39 40 40 39 39 39 40 40 40 41 40 40 40 40 39 38
42 42 41 41 41 41 41 41 41 41 41 41 41 41 40 40 40 41 41 40 40 39 40 40 40 40 40 40 40 40 40 40 41 41 41 41 41 41 41 40 40 38 37
41 41 40 41 41 41 41 41 40 41 40 41 41 42 41 40 39 40 41 40 39 39 39 39 39 40 40 40 40 41 41 41 41 41 40 40 40 40 40 39 39 38 37
40 40 40 41 41 41 40 41 41 41 39 40 41 41 41 40 40 40 40 39 38 38 38 37 37 39 40 41 41 41 41 41 41 41 40 41 41 41 40 39 39 38 37
38 40 40 40 41 41 41 40 40 40 40 40 40 40 40 40 40 40 39 39 39 39 39 38 37 37 38 40 40 40 40 40 40 40 40 41 41 40 40 39 38 38 38
39 40 40 40 40 42 42 40 41 40 40 40 39 39 39 39 39 39 39 39 39 39 39 39 38 38 38 39 39 38 38 39 39 38 38 39 39 39 39 38 38 37 37
40 40 40 39 39 40 41 41 41 40 40 40 39 39 39 38 38 39 39 38 39 39 39 39 39 38 38 38 37 37 37 38 38 37 37 38 38 38 38 37 37 37 37
39 39 40 40 39 40 40 40 41 41 40 39 39 39 38 38 37 37 38 38 38 39 39 39 39 39 38 38 37 36 36 37 36 36 37 38 38 38 38 37 37 37 37
36 37 38 38 39 40 39 39 39 40 40 39 38 38 37 37 37 37 37 38 38 38 38 38 39 39 38 37 36 36 35 35 36 36 36 37 37 37 37 37 37 37 37
35 36 37 38 38 38 38 38 37 37 37 37 37 37 37 36 36 36 37 37 38 38 37 36 37 37 37 36 35 34 33 33 34 35 35 36 36 37 36 37 38 37 36
34 34 35 36 36 36 36 36 36 35 36 37 37 36 36 35 35 34 35 35 36 37 36 35 35 35 35 34 34 33 32 32 33 33 35 36 36 36 36 36 37 37 37
33 33 35 35 35 35 35 36 36 35 35 36 37 36 36 36 35 34 34 34 35 35 36 35 34 34 33 33 33 33 33 33 33 33 35 35 35 35 35 35 36 37 37
31 32 33 34 34 34 35 35 35 35 35 35 35 36 36 35 35 34 34 33 34 34 35 34 32 32 33 33 34 34 33 32 32 32 33 33 34 35 36 36 35 36 36
31 31 32 33 34 35 35 35 35 34 34 34 34 34 34 34 34 34 33 33 33 33 33 33 32 32 33 34 33 33 32 32 32 32 32 33 34 35 35 35 35 34 33
31 32 32 33 34 35 36 35 34 34 34 33 34 34 33 34 33 33 33 32 33 32 33 33 32 33 32 32 32 32 32 32 32 33 32 33 33 33 34 33 33 32 31
32 32 33 33 33 33 33 34 34 33 34 34 34 33 33 33 32 32 32 32 32 32 32 32 32 32 32 32 32 32 33 32 32 33 33 32 33 32 31 31 30 30 29
30 31 31 31 31 31 32 33 33 33 34 34 33 33 32 31 31 31 31 32 32 32 32 32 31 32 32 33 32 33 33 32 32 32 32 31 31 31 30 29 28 28 28
28 29 30 31 30 30 31 32 32 33 33 32 32 32 31 31 31 31 31 31 31 31 31 31 31 32 33 32 32 31 31 31 30 30 29 29 29 28 28 26 26 26 26
27 28 28 28 29 29 30 30 31 32 33 32 32 31 31 31 30 31 31 31 30 29 30 31 32 31 31 31 30 29 29 29 29 28 28 28 28 27 26 24 24 25 24
25 26 26 27 28 28 29 30 30 31 31 31 31 32 31 31 30 30 31 30 29 29 30 30 31 30 29 29 28 27 27 27 27 26 27 27 26 25 23 22 22 23 23

GEFSMA_500_meanwind_288.txt.gz
Wind_Speed
37 37 37 37 37 37 36 36 35 36 35 36 36 36 36 36 37 37 38 38 38 38 38 38 38 37 37 37 36 35 35 35 35 35 35 34 34 35 35 35 36 36 36
38 37 38 38 37 36 36 36 36 36 36 36 37 38 38 38 39 39 39 39 39 39 39 39 39 38 37 37 36 36 36 36 36 36 36 35 35 35 36 36 36 36 36
39 38 38 38 37 37 37 37 37 37 37 37 38 39 39 39 39 39 40 40 40 40 40 40 39 38 38 38 38 37 37 37 37 36 36 35 35 35 35 35 36 36 36
39 39 38 38 38 38 38 37 37 38 37 38 38 39 40 40 41 40 40 40 40 40 39 39 39 39 39 39 39 39 39 38 38 37 37 36 36 35 35 35 35 36 36
39 39 39 39 39 39 39 38 38 38 38 39 39 39 40 41 40 41 40 39 39 39 38 38 39 38 38 39 39 39 39 39 39 38 38 37 37 36 35 36 35 36 36
39 40 40 40 40 40 40 40 40 39 40 40 39 40 40 40 39 40 40 39 39 38 38 38 38 38 38 39 39 38 39 39 39 39 39 38 38 37 37 37 37 37 37
39 40 41 41 40 40 41 41 40 40 41 40 39 39 40 40 40 40 40 40 40 39 39 39 38 38 38 39 39 39 38 39 39 39 39 39 39 39 39 39 39 38 38
40 41 42 42 41 41 40 40 41 40 41 40 40 40 41 40 40 40 40 40 40 40 39 39 39 39 39 39 40 40 39 38 39 39 39 39 40 40 40 39 39 39 39
42 41 41 42 42 42 41 41 41 41 41 41 41 41 41 41 41 40 41 41 41 41 40 40 40 40 40 39 39 39 39 37 37 38 38 38 39 40 40 39 40 40 39
41 40 41 42 41 41 42 42 42 43 42 41 41 41 41 41 42 42 42 42 42 42 41 41 40 39 39 38 38 38 37 37 36 37 37 37 37 38 39 39 40 39 39
39 39 40 41 41 41 41 42 43 43 42 41 41 40 40 41 42 42 42 42 42 42 42 42 41 40 38 37 37 37 37 37 37 37 36 37 38 38 39 39 39 39 39
38 38 39 39 40 40 40 42 43 43 41 41 41 40 39 39 40 41 41 42 42 42 42 41 40 39 38 37 37 37 37 37 37 37 37 38 38 39 39 39 39 39 39
36 36 38 39 40 39 40 41 41 41 42 42 41 40 40 40 40 41 41 41 41 41 40 41 40 39 38 37 37 36 36 37 37 37 38 38 38 39 39 39 38 39 38
35 35 36 37 38 38 39 38 39 40 41 40 40 40 40 40 40 40 41 41 40 40 40 39 39 38 38 37 37 36 36 36 37 37 37 38 38 38 37 37 38 38 38
35 35 35 36 38 38 38 38 39 40 39 38 38 39 39 39 39 38 38 38 38 38 38 38 37 38 38 37 37 37 36 36 36 36 37 37 37 37 36 36 36 37 37
34 34 35 35 37 37 38 38 38 37 36 36 37 37 37 37 37 37 36 37 37 37 37 36 37 37 38 37 37 37 36 35 35 36 36 37 36 35 34 34 35 35 35
33 34 35 35 36 37 38 38 38 36 35 35 36 36 36 35 35 35 36 36 36 36 35 35 35 36 37 37 36 35 34 35 35 35 35 34 33 33 34 34 34 34 35
33 33 34 35 36 37 36 36 36 36 35 34 34 35 36 36 35 35 35 35 35 34 34 34 34 35 36 36 36 35 35 35 35 35 34 34 33 33 34 33 33 33 34
32 33 34 34 35 35 35 35 35 35 35 34 34 35 36 36 35 35 35 35 34 33 34 34 34 34 35 36 36 35 35 34 34 33 33 33 32 32 32 32 33 34 34
32 32 33 33 33 33 33 33 33 34 34 35 35 34 35 34 35 35 35 34 33 33 33 33 33 34 34 35 35 35 34 34 34 34 33 32 31 31 31 32 33 34 34
31 32 32 32 31 32 31 31 32 33 34 35 35 34 34 34 34 34 33 33 32 32 32 33 33 34 34 34 34 34 34 34 34 34 32 32 31 31 31 31 32 32 33
31 32 32 32 32 31 30 30 31 32 33 33 33 33 33 33 32 32 32 32 32 31 31 31 32 33 33 33 33 33 33 33 33 32 31 31 30 31 32 32 31 31 32
31 32 32 32 31 31 30 31 31 31 32 32 32 32 32 32 32 32 32 31 31 30 30 30 30 31 32 32 33 33 32 32 31 31 31 30 30 30 30 30 30 30 31
30 30 30 31 31 31 30 31 31 30 30 29 29 30 31 32 32 32 31 30 30 30 30 30 30 31 31 31 32 32 31 31 31 30 30 29 29 29 29 30 30 29 29
29 29 29 29 29 28 29 29 29 29 28 28 28 29 30 30 31 30 30 30 31 31 31 31 32 31 31 31 31 30 30 30 29 28 29 29 28 28 28 28 28 28 27
27 28 28 27 27 27 27 27 27 28 28 28 28 28 28 29 29 29 29 30 31 30 30 30 30 30 30 30 30 30 29 29 28 28 27 27 27 27 27 27 27 26 25